User: anonymous
Location: Lawrence Hall of Science
(37.8785°N, 122.2415°W)
Time: 11:08:38
(UTC-07:00)
Language:

Cosmos 2098 Rocket - Orbit

View from above orbital plane
View from above orbital plane
View from above satellite
View from above satellite

Ground track
Ground track

The orbit data is extracted from the following two-line orbital elements,

1 20775U 90078B   14264.14760207  .00008078  00000-0  43608-3 0  5138
2 20775 082.9343 142.3776 0637239 162.7194 353.4729 14.18877950206216
Epoch (UTC): 21 September 2014 03:32:32
Eccentricity: 0.0637239
inclination: 82.9343°
perigee height: 370 km
apogee height: 1288 km
right ascension of ascending node: 142.3776°
argument of perigee: 162.7194°
revolutions per day: 14.18877950
mean anomaly at epoch: 353.4729°
orbit number at epoch: 20621

The dashed part of the orbit path shows where the satellite is in the earth's shadow,  

DLR